sat.trackr.live / text

‹ back to catalog

ONEWEB-0508

NORAD 54126 · 2022-138P

PAYLOAD ACTIVE UNKNOWN

§ Identity

Operator
Country
UK
Launch date
2022-10-22
Launch site
SRILR
Launch vehicle
Mass (kg)
RCS (m²)

Purposes: comms

External: N2YO · Heavens-Above · Gunter

§ Orbital elements

Epoch: 2026-05-25T03:28:23.522016Z

Period
109.11 min
Inclination
87.9149°
Eccentricity
0.0001427
Mean motion
13.19726984 rev/d
Perigee alt
1,184.7 km
Apogee alt
1,186.8 km
Semi-major
7,563.9 km
B*
5.9015e-5
RAAN
309.5694°
Arg perigee
83.9794°
Mean anomaly
276.1501°
Rev number
17,379

§ Raw data

ONEWEB-05081 54126U 22138P   26145.14471669  .00000037  00000+0  59015-4 0  99932 54126  87.9149 309.5694 0001427  83.9794 276.1501 13.19726984173797

JSON: /api/v1/satellites/54126 · /tle

For live sub-satellite position, see the globe view (requires WebGL).

§ Visibility from observer

Set your observer location to see the next 7 days of passes ≥ 10°. The values pass through the URL so the page stays shareable.

No JS? Fill the form by hand. The geolocation button needs JavaScript.